Time,TemperatureF,DewpointF,PressureIn,WindDirection,WindDirectionDegrees,WindSpeedMPH,WindSpeedGustMPH,Humidity,HourlyPrecipIn,Conditions,Clouds,dailyrainin,SoftwareType,DateUTC
2013-03-31 00:02:00,50.0,-99.9,-100.00,West,270,33.0,44.0,-999,-99.99,,,-99.99,,2013-03-31 07:02:00,
2013-03-31 00:12:00,50.0,-99.9,-100.00,West,270,33.0,44.0,-999,-99.99,,,-99.99,,2013-03-31 07:12:00,
2013-03-31 00:22:00,50.0,-99.9,-100.00,West,270,33.0,44.0,-999,-99.99,,,-99.99,,2013-03-31 07:22:00,
2013-03-31 00:33:00,50.0,-99.9,-100.00,West,270,27.0,40.0,-999,-99.99,,,-99.99,,2013-03-31 07:33:00,
2013-03-31 00:43:00,50.0,-99.9,-100.00,West,270,27.0,40.0,-999,-99.99,,,-99.99,,2013-03-31 07:43:00,
2013-03-31 00:53:00,50.0,-99.9,-100.00,West,270,21.0,36.0,-999,-99.99,,,-99.99,,2013-03-31 07:53:00,
2013-03-31 01:02:00,50.0,-99.9,-100.00,West,270,18.0,34.0,-999,-99.99,,,-99.99,,2013-03-31 08:02:00,
2013-03-31 01:13:00,50.0,-99.9,-100.00,West,270,18.0,34.0,-999,-99.99,,,-99.99,,2013-03-31 08:13:00,
2013-03-31 01:22:00,50.0,-99.9,-100.00,West,270,12.0,29.0,-999,-99.99,,,-99.99,,2013-03-31 08:22:00,
2013-03-31 01:33:00,50.0,-99.9,-100.00,West,270,8.0,22.0,-999,-99.99,,,-99.99,,2013-03-31 08:33:00,
2013-03-31 01:43:00,50.0,-99.9,-100.00,West,270,8.0,22.0,-999,-99.99,,,-99.99,,2013-03-31 08:43:00,
2013-03-31 01:52:00,50.0,-99.9,-100.00,West,270,9.0,16.0,-999,-99.99,,,-99.99,,2013-03-31 08:52:00,
2013-03-31 02:02:00,50.0,-99.9,-100.00,SW,225,6.0,11.0,-999,-99.99,,,-99.99,,2013-03-31 09:02:00,
2013-03-31 02:12:00,50.0,-99.9,-100.00,SW,225,6.0,11.0,-999,-99.99,,,-99.99,,2013-03-31 09:12:00,
2013-03-31 02:22:00,50.0,-99.9,-100.00,SW,225,5.0,10.0,-999,-99.99,,,-99.99,,2013-03-31 09:22:00,
2013-03-31 02:33:00,50.0,-99.9,-100.00,SW,225,4.0,9.0,-999,-99.99,,,-99.99,,2013-03-31 09:33:00,
2013-03-31 02:43:00,50.0,-99.9,-100.00,SW,225,4.0,9.0,-999,-99.99,,,-99.99,,2013-03-31 09:43:00,
2013-03-31 02:53:00,50.0,-99.9,-100.00,SW,225,4.0,8.0,-999,-99.99,,,-99.99,,2013-03-31 09:53:00,
2013-03-31 03:03:00,50.0,-99.9,-100.00,SW,225,7.0,9.0,-999,-99.99,,,-99.99,,2013-03-31 10:03:00,
2013-03-31 03:13:00,50.0,-99.9,-100.00,SW,225,7.0,9.0,-999,-99.99,,,-99.99,,2013-03-31 10:13:00,
2013-03-31 03:24:00,50.0,-99.9,-100.00,SW,225,6.0,10.0,-999,-99.99,,,-99.99,,2013-03-31 10:24:00,
2013-03-31 03:33:00,50.0,-99.9,-100.00,SW,225,10.0,12.0,-999,-99.99,,,-99.99,,2013-03-31 10:33:00,
2013-03-31 03:42:00,50.0,-99.9,-100.00,SW,225,10.0,12.0,-999,-99.99,,,-99.99,,2013-03-31 10:42:00,
2013-03-31 03:53:00,50.0,-99.9,-100.00,SW,225,6.0,12.0,-999,-99.99,,,-99.99,,2013-03-31 10:53:00,
2013-03-31 04:03:00,51.0,-99.9,-100.00,South,180,2.0,11.0,-999,-99.99,,,-99.99,,2013-03-31 11:03:00,
2013-03-31 04:12:00,51.0,-99.9,-100.00,South,180,2.0,11.0,-999,-99.99,,,-99.99,,2013-03-31 11:12:00,
2013-03-31 04:23:00,51.0,-99.9,-100.00,South,180,4.0,8.0,-999,-99.99,,,-99.99,,2013-03-31 11:23:00,
2013-03-31 04:33:00,51.0,-99.9,-100.00,SE,135,4.0,6.0,-999,-99.99,,,-99.99,,2013-03-31 11:33:00,
2013-03-31 04:43:00,51.0,-99.9,-100.00,SE,135,4.0,6.0,-999,-99.99,,,-99.99,,2013-03-31 11:43:00,
2013-03-31 04:53:00,50.0,-99.9,-100.00,South,180,4.0,6.0,-999,-99.99,,,-99.99,,2013-03-31 11:53:00,
2013-03-31 05:03:00,50.0,-99.9,-100.00,South,180,4.0,6.0,-999,-99.99,,,-99.99,,2013-03-31 12:03:00,
2013-03-31 05:12:00,50.0,-99.9,-100.00,South,180,4.0,6.0,-999,-99.99,,,-99.99,,2013-03-31 12:12:00,
2013-03-31 05:22:00,50.0,-99.9,-100.00,South,180,6.0,6.0,-999,-99.99,,,-99.99,,2013-03-31 12:22:00,
2013-03-31 05:33:00,50.0,-99.9,-100.00,South,180,6.0,6.0,-999,-99.99,,,-99.99,,2013-03-31 12:33:00,
2013-03-31 05:42:00,50.0,-99.9,-100.00,South,180,6.0,6.0,-999,-99.99,,,-99.99,,2013-03-31 12:42:00,
2013-03-31 05:53:00,50.0,-99.9,-100.00,South,180,5.0,6.0,-999,-99.99,,,-99.99,,2013-03-31 12:53:00,
2013-03-31 06:02:00,50.0,-99.9,-100.00,SE,135,6.0,6.0,-999,-99.99,,,-99.99,,2013-03-31 13:02:00,
2013-03-31 06:12:00,50.0,-99.9,-100.00,SE,135,6.0,6.0,-999,-99.99,,,-99.99,,2013-03-31 13:12:00,
2013-03-31 06:23:00,49.0,-99.9,-100.00,SE,135,6.0,8.0,-999,-99.99,,,-99.99,,2013-03-31 13:23:00,
2013-03-31 06:33:00,49.0,-99.9,-100.00,SE,135,6.0,8.0,-999,-99.99,,,-99.99,,2013-03-31 13:33:00,
2013-03-31 06:42:00,49.0,-99.9,-100.00,SE,135,6.0,8.0,-999,-99.99,,,-99.99,,2013-03-31 13:42:00,
2013-03-31 06:53:00,49.0,-99.9,-100.00,SE,135,7.0,8.0,-999,-99.99,,,-99.99,,2013-03-31 13:53:00,
2013-03-31 07:03:00,49.0,-99.9,-100.00,SE,135,8.0,9.0,-999,-99.99,,,-99.99,,2013-03-31 14:03:00,
2013-03-31 07:13:00,49.0,-99.9,-100.00,SE,135,8.0,9.0,-999,-99.99,,,-99.99,,2013-03-31 14:13:00,
2013-03-31 07:23:00,49.0,-99.9,-100.00,South,180,8.0,9.0,-999,-99.99,,,-99.99,,2013-03-31 14:23:00,
2013-03-31 07:33:00,49.0,-99.9,-100.00,SE,135,9.0,9.0,-999,-99.99,,,-99.99,,2013-03-31 14:33:00,
2013-03-31 07:43:00,49.0,-99.9,-100.00,SE,135,9.0,9.0,-999,-99.99,,,-99.99,,2013-03-31 14:43:00,
2013-03-31 07:53:00,50.0,-99.9,-100.00,SE,135,8.0,9.0,-999,-99.99,,,-99.99,,2013-03-31 14:53:00,
2013-03-31 08:03:00,50.0,-99.9,-100.00,SE,135,8.0,9.0,-999,-99.99,,,-99.99,,2013-03-31 15:03:00,
2013-03-31 08:13:00,50.0,-99.9,-100.00,SE,135,8.0,9.0,-999,-99.99,,,-99.99,,2013-03-31 15:13:00,
2013-03-31 08:23:00,50.0,-99.9,-100.00,SE,135,9.0,10.0,-999,-99.99,,,-99.99,,2013-03-31 15:23:00,
2013-03-31 08:34:00,51.0,-99.9,-100.00,SE,135,9.0,10.0,-999,-99.99,,,-99.99,,2013-03-31 15:34:00,
2013-03-31 08:44:00,51.0,-99.9,-100.00,SE,135,9.0,10.0,-999,-99.99,,,-99.99,,2013-03-31 15:44:00,
2013-03-31 08:54:00,51.0,-99.9,-100.00,SE,135,8.0,10.0,-999,-99.99,,,-99.99,,2013-03-31 15:54:00,
2013-03-31 09:03:00,51.0,-99.9,-100.00,SE,135,6.0,9.0,-999,-99.99,,,-99.99,,2013-03-31 16:03:00,
2013-03-31 09:14:00,51.0,-99.9,-100.00,SE,135,6.0,9.0,-999,-99.99,,,-99.99,,2013-03-31 16:14:00,
2013-03-31 09:23:00,52.0,-99.9,-100.00,SE,135,6.0,8.0,-999,-99.99,,,-99.99,,2013-03-31 16:23:00,
2013-03-31 09:34:00,53.0,-99.9,-100.00,SE,135,6.0,7.0,-999,-99.99,,,-99.99,,2013-03-31 16:34:00,
2013-03-31 09:43:00,53.0,-99.9,-100.00,SE,135,6.0,7.0,-999,-99.99,,,-99.99,,2013-03-31 16:43:00,
2013-03-31 09:54:00,54.0,-99.9,-100.00,South,180,4.0,7.0,-999,-99.99,,,-99.99,,2013-03-31 16:54:00,
2013-03-31 10:03:00,55.0,-99.9,-100.00,South,180,3.0,7.0,-999,-99.99,,,-99.99,,2013-03-31 17:03:00,
2013-03-31 10:13:00,55.0,-99.9,-100.00,South,180,3.0,7.0,-999,-99.99,,,-99.99,,2013-03-31 17:13:00,
2013-03-31 10:23:00,55.0,-99.9,-100.00,West,270,6.0,8.0,-999,-99.99,,,-99.99,,2013-03-31 17:23:00,
2013-03-31 10:33:00,56.0,-99.9,-100.00,West,270,8.0,9.0,-999,-99.99,,,-99.99,,2013-03-31 17:33:00,
2013-03-31 10:43:00,56.0,-99.9,-100.00,West,270,8.0,9.0,-999,-99.99,,,-99.99,,2013-03-31 17:43:00,
2013-03-31 10:53:00,56.0,-99.9,-100.00,West,270,11.0,13.0,-999,-99.99,,,-99.99,,2013-03-31 17:53:00,
2013-03-31 11:03:00,56.0,-99.9,-100.00,West,270,12.0,16.0,-999,-99.99,,,-99.99,,2013-03-31 18:03:00,
2013-03-31 11:13:00,56.0,-99.9,-100.00,West,270,12.0,16.0,-999,-99.99,,,-99.99,,2013-03-31 18:13:00,
2013-03-31 11:22:00,56.0,-99.9,-100.00,West,270,12.0,17.0,-999,-99.99,,,-99.99,,2013-03-31 18:22:00,
2013-03-31 11:33:00,56.0,-99.9,-100.00,West,270,15.0,17.0,-999,-99.99,,,-99.99,,2013-03-31 18:33:00,
2013-03-31 11:43:00,56.0,-99.9,-100.00,West,270,15.0,17.0,-999,-99.99,,,-99.99,,2013-03-31 18:43:00,
2013-03-31 11:53:00,56.0,-99.9,-100.00,West,270,14.0,18.0,-999,-99.99,,,-99.99,,2013-03-31 18:53:00,
2013-03-31 12:03:00,55.0,-99.9,-100.00,West,270,17.0,20.0,-999,-99.99,,,-99.99,,2013-03-31 19:03:00,
2013-03-31 12:13:00,55.0,-99.9,-100.00,West,270,17.0,20.0,-999,-99.99,,,-99.99,,2013-03-31 19:13:00,
2013-03-31 12:23:00,55.0,-99.9,-100.00,West,270,16.0,20.0,-999,-99.99,,,-99.99,,2013-03-31 19:23:00,
2013-03-31 12:33:00,54.0,-99.9,-100.00,West,270,16.0,20.0,-999,-99.99,,,-99.99,,2013-03-31 19:33:00,
2013-03-31 12:43:00,54.0,-99.9,-100.00,West,270,16.0,20.0,-999,-99.99,,,-99.99,,2013-03-31 19:43:00,
2013-03-31 12:54:00,54.0,-99.9,-100.00,West,270,15.0,20.0,-999,-99.99,,,-99.99,,2013-03-31 19:54:00,
2013-03-31 13:03:00,54.0,-99.9,-100.00,West,270,17.0,21.0,-999,-99.99,,,-99.99,,2013-03-31 20:03:00,
2013-03-31 13:13:00,54.0,-99.9,-100.00,West,270,17.0,21.0,-999,-99.99,,,-99.99,,2013-03-31 20:13:00,
2013-03-31 13:23:00,54.0,-99.9,-100.00,West,270,20.0,23.0,-999,-99.99,,,-99.99,,2013-03-31 20:23:00,
2013-03-31 13:34:00,53.0,-99.9,-100.00,West,270,15.0,23.0,-999,-99.99,,,-99.99,,2013-03-31 20:34:00,
2013-03-31 13:44:00,53.0,-99.9,-100.00,West,270,15.0,23.0,-999,-99.99,,,-99.99,,2013-03-31 20:44:00,
2013-03-31 13:53:00,53.0,-99.9,-100.00,West,270,15.0,21.0,-999,-99.99,,,-99.99,,2013-03-31 20:53:00,
2013-03-31 14:03:00,53.0,-99.9,-100.00,West,270,14.0,21.0,-999,-99.99,,,-99.99,,2013-03-31 21:03:00,
2013-03-31 14:13:00,53.0,-99.9,-100.00,West,270,14.0,21.0,-999,-99.99,,,-99.99,,2013-03-31 21:13:00,
2013-03-31 14:23:00,56.0,-99.9,-100.00,West,270,18.0,23.0,-999,-99.99,,,-99.99,,2013-03-31 21:23:00,
2013-03-31 14:34:00,56.0,-99.9,-100.00,West,270,20.0,26.0,-999,-99.99,,,-99.99,,2013-03-31 21:34:00,
2013-03-31 14:44:00,56.0,-99.9,-100.00,West,270,20.0,26.0,-999,-99.99,,,-99.99,,2013-03-31 21:44:00,
2013-03-31 14:54:00,56.0,-99.9,-100.00,West,270,19.0,26.0,-999,-99.99,,,-99.99,,2013-03-31 21:54:00,
2013-03-31 15:04:00,56.0,-99.9,-100.00,West,270,20.0,26.0,-999,-99.99,,,-99.99,,2013-03-31 22:04:00,
2013-03-31 15:13:00,56.0,-99.9,-100.00,West,270,20.0,26.0,-999,-99.99,,,-99.99,,2013-03-31 22:13:00,
2013-03-31 15:24:00,56.0,-99.9,-100.00,West,270,21.0,26.0,-999,-99.99,,,-99.99,,2013-03-31 22:24:00,
2013-03-31 15:34:00,56.0,-99.9,-100.00,West,270,20.0,28.0,-999,-99.99,,,-99.99,,2013-03-31 22:34:00,
2013-03-31 15:43:00,56.0,-99.9,-100.00,West,270,20.0,28.0,-999,-99.99,,,-99.99,,2013-03-31 22:43:00,
2013-03-31 15:54:00,56.0,-99.9,-100.00,West,270,20.0,28.0,-999,-99.99,,,-99.99,,2013-03-31 22:54:00,
2013-03-31 16:03:00,55.0,-99.9,-100.00,West,270,21.0,26.0,-999,-99.99,,,-99.99,,2013-03-31 23:03:00,
2013-03-31 16:13:00,55.0,-99.9,-100.00,West,270,21.0,26.0,-999,-99.99,,,-99.99,,2013-03-31 23:13:00,
2013-03-31 16:23:00,55.0,-99.9,-100.00,West,270,21.0,29.0,-999,-99.99,,,-99.99,,2013-03-31 23:23:00,
2013-03-31 16:33:00,54.0,-99.9,-100.00,West,270,24.0,29.0,-999,-99.99,,,-99.99,,2013-03-31 23:33:00,
2013-03-31 16:43:00,54.0,-99.9,-100.00,West,270,24.0,29.0,-999,-99.99,,,-99.99,,2013-03-31 23:43:00,
2013-03-31 16:54:00,55.0,-99.9,-100.00,West,270,21.0,29.0,-999,-99.99,,,-99.99,,2013-03-31 23:54:00,
2013-03-31 17:03:00,54.0,-99.9,-100.00,West,270,22.0,29.0,-999,-99.99,,,-99.99,,2013-04-01 00:03:00,
2013-03-31 17:13:00,54.0,-99.9,-100.00,West,270,22.0,29.0,-999,-99.99,,,-99.99,,2013-04-01 00:13:00,
2013-03-31 17:23:00,54.0,-99.9,-100.00,West,270,22.0,29.0,-999,-99.99,,,-99.99,,2013-04-01 00:23:00,
2013-03-31 17:33:00,54.0,-99.9,-100.00,West,270,21.0,26.0,-999,-99.99,,,-99.99,,2013-04-01 00:33:00,
2013-03-31 17:43:00,54.0,-99.9,-100.00,West,270,21.0,26.0,-999,-99.99,,,-99.99,,2013-04-01 00:43:00,
2013-03-31 17:53:00,54.0,-99.9,-100.00,SW,225,21.0,26.0,-999,-99.99,,,-99.99,,2013-04-01 00:53:00,
2013-03-31 18:03:00,54.0,-99.9,-100.00,West,270,20.0,26.0,-999,-99.99,,,-99.99,,2013-04-01 01:03:00,
2013-03-31 18:13:00,54.0,-99.9,-100.00,West,270,20.0,26.0,-999,-99.99,,,-99.99,,2013-04-01 01:13:00,
2013-03-31 18:23:00,54.0,-99.9,-100.00,West,270,20.0,25.0,-999,-99.99,,,-99.99,,2013-04-01 01:23:00,
2013-03-31 18:33:00,54.0,-99.9,-100.00,SW,225,16.0,24.0,-999,-99.99,,,-99.99,,2013-04-01 01:33:00,
2013-03-31 18:43:00,54.0,-99.9,-100.00,SW,225,16.0,24.0,-999,-99.99,,,-99.99,,2013-04-01 01:43:00,
2013-03-31 18:53:00,53.0,-99.9,-100.00,SW,225,16.0,24.0,-999,-99.99,,,-99.99,,2013-04-01 01:53:00,
2013-03-31 19:03:00,53.0,-99.9,-100.00,SW,225,16.0,22.0,-999,-99.99,,,-99.99,,2013-04-01 02:03:00,
2013-03-31 19:13:00,53.0,-99.9,-100.00,SW,225,16.0,22.0,-999,-99.99,,,-99.99,,2013-04-01 02:13:00,
2013-03-31 19:23:00,53.0,-99.9,-100.00,SW,225,15.0,21.0,-999,-99.99,,,-99.99,,2013-04-01 02:23:00,
2013-03-31 19:33:00,52.0,-99.9,-100.00,SW,225,14.0,19.0,-999,-99.99,,,-99.99,,2013-04-01 02:33:00,
2013-03-31 19:43:00,52.0,-99.9,-100.00,SW,225,14.0,19.0,-999,-99.99,,,-99.99,,2013-04-01 02:43:00,
2013-03-31 19:53:00,53.0,-99.9,-100.00,SW,225,15.0,19.0,-999,-99.99,,,-99.99,,2013-04-01 02:53:00,
2013-03-31 20:03:00,53.0,-99.9,-100.00,SW,225,11.0,18.0,-999,-99.99,,,-99.99,,2013-04-01 03:03:00,
2013-03-31 20:12:00,53.0,-99.9,-100.00,SW,225,11.0,18.0,-999,-99.99,,,-99.99,,2013-04-01 03:12:00,
2013-03-31 20:23:00,52.0,-99.9,-100.00,West,270,9.0,17.0,-999,-99.99,,,-99.99,,2013-04-01 03:23:00,
2013-03-31 20:35:00,52.0,-99.9,-100.00,SW,225,11.0,17.0,-999,-99.99,,,-99.99,,2013-04-01 03:35:00,
2013-03-31 20:43:00,52.0,-99.9,-100.00,SW,225,11.0,17.0,-999,-99.99,,,-99.99,,2013-04-01 03:43:00,
2013-03-31 20:53:00,52.0,-99.9,-100.00,SW,225,14.0,17.0,-999,-99.99,,,-99.99,,2013-04-01 03:53:00,
2013-03-31 21:03:00,52.0,-99.9,-100.00,SW,225,16.0,21.0,-999,-99.99,,,-99.99,,2013-04-01 04:03:00,
2013-03-31 21:14:00,52.0,-99.9,-100.00,SW,225,16.0,21.0,-999,-99.99,,,-99.99,,2013-04-01 04:14:00,
2013-03-31 21:24:00,51.0,-99.9,-100.00,SW,225,11.0,21.0,-999,-99.99,,,-99.99,,2013-04-01 04:24:00,
2013-03-31 21:33:00,51.0,-99.9,-100.00,SW,225,11.0,16.0,-999,-99.99,,,-99.99,,2013-04-01 04:33:00,
2013-03-31 21:44:00,51.0,-99.9,-100.00,SW,225,11.0,16.0,-999,-99.99,,,-99.99,,2013-04-01 04:44:00,
2013-03-31 21:53:00,51.0,-99.9,-100.00,West,270,9.0,14.0,-999,-99.99,,,-99.99,,2013-04-01 04:53:00,
2013-03-31 22:03:00,51.0,-99.9,-100.00,SW,225,11.0,16.0,-999,-99.99,,,-99.99,,2013-04-01 05:03:00,
2013-03-31 22:13:00,51.0,-99.9,-100.00,SW,225,11.0,16.0,-999,-99.99,,,-99.99,,2013-04-01 05:13:00,
2013-03-31 22:23:00,51.0,-99.9,-100.00,SW,225,14.0,18.0,-999,-99.99,,,-99.99,,2013-04-01 05:23:00,
2013-03-31 22:33:00,51.0,-99.9,-100.00,SW,225,12.0,18.0,-999,-99.99,,,-99.99,,2013-04-01 05:33:00,
2013-03-31 22:43:00,51.0,-99.9,-100.00,SW,225,12.0,18.0,-999,-99.99,,,-99.99,,2013-04-01 05:43:00,
2013-03-31 22:53:00,51.0,-99.9,-100.00,SW,225,13.0,17.0,-999,-99.99,,,-99.99,,2013-04-01 05:53:00,
2013-03-31 23:02:00,51.0,-99.9,-100.00,SW,225,11.0,17.0,-999,-99.99,,,-99.99,,2013-04-01 06:02:00,
2013-03-31 23:13:00,51.0,-99.9,-100.00,SW,225,11.0,17.0,-999,-99.99,,,-99.99,,2013-04-01 06:13:00,
2013-03-31 23:23:00,51.0,-99.9,-100.00,West,270,11.0,17.0,-999,-99.99,,,-99.99,,2013-04-01 06:23:00,
2013-03-31 23:34:00,51.0,-99.9,-100.00,West,270,13.0,17.0,-999,-99.99,,,-99.99,,2013-04-01 06:34:00,
2013-03-31 23:43:00,51.0,-99.9,-100.00,West,270,13.0,17.0,-999,-99.99,,,-99.99,,2013-04-01 06:43:00,
2013-03-31 23:53:00,51.0,-99.9,-100.00,West,270,15.0,17.0,-999,-99.99,,,-99.99,,2013-04-01 06:53:00,